TimeMST,TemperatureF,Dew PointF,Humidity,Sea Level PressureIn,VisibilityMPH,Wind Direction,Wind SpeedMPH,Gust SpeedMPH,PrecipitationIn,Events,Conditions,WindDirDegrees,DateUTC
12:53 AM,37.9,21.9,53,29.91,10.0,WSW,9.2,-,N/A,,Clear,240,2013-03-03 07:53:00
1:53 AM,37.9,21.0,51,29.88,10.0,West,10.4,-,N/A,,Clear,260,2013-03-03 08:53:00
2:53 AM,35.1,21.0,57,29.84,10.0,West,9.2,-,N/A,,Clear,260,2013-03-03 09:53:00
3:53 AM,37.4,19.4,48,29.89,10.0,NW,5.8,-,N/A,,Clear,310,2013-03-03 10:53:00
4:53 AM,43.0,17.1,35,29.80,10.0,WNW,8.1,-,N/A,,Clear,290,2013-03-03 11:53:00
5:53 AM,43.0,18.0,37,29.79,10.0,West,16.1,-,N/A,,Clear,270,2013-03-03 12:53:00
6:53 AM,44.1,18.0,35,29.78,10.0,West,19.6,-,N/A,,Clear,270,2013-03-03 13:53:00
7:53 AM,45.0,19.0,36,29.76,10.0,West,17.3,-,N/A,,Clear,280,2013-03-03 14:53:00
8:53 AM,46.9,18.0,32,29.72,10.0,West,26.5,38.0,N/A,,Clear,280,2013-03-03 15:53:00
9:53 AM,50.0,19.0,29,29.71,10.0,West,27.6,38.0,N/A,,Clear,280,2013-03-03 16:53:00
10:53 AM,51.1,19.9,29,29.70,10.0,WNW,16.1,31.1,N/A,,Partly Cloudy,290,2013-03-03 17:53:00
11:53 AM,52.0,23.0,32,29.67,10.0,West,19.6,27.6,N/A,,Partly Cloudy,280,2013-03-03 18:53:00
12:53 PM,53.1,21.9,30,29.62,10.0,West,23.0,31.1,N/A,,Clear,270,2013-03-03 19:53:00
1:53 PM,54.0,21.9,29,29.61,10.0,West,27.6,35.7,N/A,,Clear,260,2013-03-03 20:53:00
2:53 PM,54.0,21.9,29,29.60,10.0,West,31.1,43.7,N/A,,Clear,280,2013-03-03 21:53:00
3:53 PM,51.1,21.0,31,29.60,10.0,West,21.9,38.0,N/A,,Clear,270,2013-03-03 22:53:00
4:53 PM,48.9,21.9,35,29.59,10.0,West,25.3,36.8,N/A,,Clear,280,2013-03-03 23:53:00
5:53 PM,44.1,24.1,45,29.61,10.0,West,23.0,32.2,N/A,,Clear,270,2013-03-04 00:53:00
6:53 PM,41.0,25.0,53,29.62,10.0,West,18.4,-,N/A,,Clear,270,2013-03-04 01:53:00
7:53 PM,42.1,24.1,49,29.59,10.0,West,24.2,-,N/A,,Clear,270,2013-03-04 02:53:00
8:53 PM,39.9,24.1,53,29.57,10.0,West,28.8,35.7,N/A,,Clear,270,2013-03-04 03:53:00
9:53 PM,41.0,24.1,51,29.54,10.0,West,25.3,35.7,N/A,,Clear,280,2013-03-04 04:53:00
10:53 PM,41.0,21.9,47,29.53,10.0,West,26.5,36.8,N/A,,Clear,280,2013-03-04 05:53:00
11:53 PM,42.1,19.0,40,29.53,10.0,WNW,21.9,36.8,N/A,,Clear,290,2013-03-04 06:53:00